Other Public Products
Issued by NWS Grand Forks, ND

Home | Current Version | Previous Version | Text Only | Print | Product List | Glossary On
Versions: 1 2 3 4 5 6 7 8 9 10 11 12 13 14 15 16 17 18 19 20 21 22 23 24 25 26 27 28 29 30 31 32 33 34 35 36 37 38 39 40 41 42 43 44 45 46 47 48 49 50
000
FPUS83 KFGF 270210
OPUFGF
PRAIRIE TO PINES WEATHER ROUNDUP
NATIONAL WEATHER SERVICE EASTERN NORTH DAKOTA/GRAND FORKS ND
900 PM CDT THU MAY 26 2016

 **SATELLITE DATA USED TO AUGMENT SKY COVER AT AUTOMATED STATIONS**
 *****  WEATHER ACROSS EASTERN NORTH DAKOTA  *****

CITY           SKY/WX    TMP DP  RH WIND       PRES   REMARKS
GRAND FORKS    PTCLDY    63  55  75 NW6       29.78R
GRAND FORKS AF CLEAR     63  54  72 NW2       29.79R
GRAND CITY NWS   N/A     63 N/A N/A NW2         N/A
BUXTON           N/A     68  56  66 CALM        N/A
DEVILS LAKE    LGT RAIN  59  54  83 W6        29.79R
FARGO          PTCLDY    69  56  62 CALM      29.76R
WAHPETON ARPT  CLOUDY    72  50  46 SE3       29.77F
$$

 *****  WEATHER ACROSS CENTRAL AND WESTERN NORTH DAKOTA  *****

CITY           SKY/WX    TMP DP  RH WIND       PRES   REMARKS
JAMESTOWN      CLOUDY    66  55  67 N12       29.78R
BISMARCK       CLEAR     65  48  54 N7        29.78R
MINOT          CLOUDY    57  51  80 W6        29.80F
MINOT AFB      CLOUDY    60  55  83 N8        29.79F
GARRISON         N/A     56  50  80 N10       29.79S
WILLISTON      CLOUDY    58  48  69 NE8       29.82R
DICKINSON      CLEAR     56  42  59 W8        29.81R
HETTINGER      CLEAR     56  43  61 NW8       29.83S
$$

 *****  OTHER OBSERVATIONS NORTHEAST NORTH DAKOTA  *****

CITY           SKY/WX    TMP DP  RH WIND       PRES   REMARKS
WALHALLA       FAIR      59  59 100 NW9       29.74R
LANGDON        FAIR      57  55  94 NW14      29.75S
CAVALIER       FAIR      61  55  82 NW12      29.73R
GRAFTON        FAIR      63  55  77 NW12      29.77R
CANDO          FAIR      57  54  88 NW3       29.79F
FORT TOTTEN      N/A     56  55  95 N5        29.95S
ROLLA          FAIR      55  52  88 N8        29.78F
RUGBY          FAIR      55  54  94 N8        29.77
 ***** THE ABOVE OBSERVATIONS ARE NON NWS ARE NOT QUALITY
        CONTROLLED AND MAY MIS-REPORT RAIN FOR SNOW...
$$

 *****  OTHER OBSERVATIONS SOUTHEAST NORTH DAKOTA *****

CITY           SKY/WX    TMP DP  RH WIND       PRES   REMARKS
COOPERSTOWN    NOT AVBL
VALLEY CITY    FAIR      68  54  60 E3        29.80R
OAKES            N/A    N/A N/A N/A MISG        N/A
GWINNER        MOCLDY    72  55  56 SW3       29.76F
SHEYENNE NWR     N/A     69  54  58 CALM      29.95
BUFFALO          N/A     67  53  60 E7          N/A
WYNDMERE         N/A     73  52  46 SW2         N/A
 ***** THE ABOVE OBSERVATIONS ARE NON NWS ARE NOT QUALITY
       CONTROLLED AND MAY MIS-REPORT RAIN FOR SNOW...
$$

  *****  WEATHER ACROSS NORTHERN MINNESOTA  *****

CITY           SKY/WX    TMP DP  RH WIND       PRES   REMARKS
FLAG ISLAND    MOCLDY    64  55  72 S5        29.70R HAZE
WARROAD        CLEAR     64  55  72 SW7       29.74R
ROSEAU         CLEAR     64  55  72 SW7       29.73R
HALLOCK        CLEAR     61  55  82 NW12      29.72R
THF RVR FALLS  CLEAR     64  54  68 SW7       29.80R
HALSTAD        NOT AVBL
FOSSTON        CLEAR     63  54  72 SW5       29.80R
BAUDETTE       PTCLDY    64  52  64 S7        29.75R
WASKISH        CLEAR     64  55  72 S3        29.78R
CROOKSTON      PTCLDY    64  55  72 W5        29.79R
$$
  *****  WEATHER ACROSS CENTRAL AND WEST MINNESOTA  *****

CITY           SKY/WX    TMP DP  RH WIND       PRES   REMARKS
BEMIDJI        CLEAR     64  52  63 S6        29.82R
PARK RAPIDS    CLEAR     68  52  56 S3        29.82R
WADENA         PTCLDY    64  54  68 E5        29.82F
DETROIT LAKES  CLOUDY    66  54  63 SE5       29.82F
MOORHEAD       PTCLDY    72  55  56 E5        29.78F
FERGUS FALLS   CLOUDY    72  48  43 CALM      29.75F
ELBOW LAKE     FAIR      69  51  53 SE5       29.80F
MORRIS MN      CLOUDY    72  48  43 SW5       29.79F
STAPLES        CLOUDY    68  50  52 CALM      29.83S
WHEATON        CLOUDY    73  52  46 S8        29.79F
$$
  *****  WEATHER ELSEWHERE ACROSS MINNESOTA  *****

CITY           SKY/WX    TMP DP  RH WIND       PRES   REMARKS
DULUTH         PTCLDY    52  49  89 CALM      29.84R
INTRNTL FALLS  CLEAR     65  53  65 SW7       29.76R
ELY            MOCLDY    66  52  59 S5        29.80R
CLOQUET        CLEAR     54  50  87 CALM      29.84R
BRAINERD       CLOUDY    64  52  64 CALM      29.84R
HIBBING        PTCLDY    66  51  58 SW3       29.81R
ALEXANDRIA     MOCLDY    69  49  48 CALM      29.82F
SAINT CLOUD    CLOUDY    68  56  65 NE3       29.82F
MINNEAPOLIS    CLOUDY    77  50  38 S5        29.83S
$$

  *****  WEATHER ACROSS SOUTH DAKOTA  *****

CITY           SKY/WX    TMP DP  RH WIND       PRES   REMARKS
SIOUX FALLS    CLOUDY    66  56  70 E6        29.79F
BROOKINGS      PTCLDY    70  53  54 SE5       29.79F
WATERTOWN      PTCLDY    70  49  47 SE3       29.79F
HURON          CLOUDY    70  55  59 SE10      29.75F
SISSETON         N/A     71  50  47 S6        29.76F
ABERDEEN       LGT RAIN  74  55  51 SW6       29.77S
MITCHELL       CLOUDY    68  61  78 SE6       29.76F
PIERRE         CLEAR     65  52  62 NW7       29.76F
MOBRIDGE       PTCLDY    71  49  45 NW3       29.76R
RAPID CITY     MOCLDY    60  49  66 N5        29.83R
$$

  *****  SOME WEATHER IN NEARBY STATES *****

CITY           SKY/WX    TMP DP  RH WIND       PRES   REMARKS
GLASGOW MT     CLOUDY    58  51  78 NE13      29.83R
GREAT FALLS MT CLOUDY    57  45  64 NE7       29.90F
CHEYENNE WY    CLOUDY    49  39  68 CALM      29.92S
SCOTTSBLUFF NE CLOUDY    60  42  51 W9        29.84F
OMAHA NE       RAIN      63  58  83 SE13      29.87R
DES MOINES IA  LGT RAIN  64  59  83 N9        29.94F
DAVENPORT IA   CLOUDY    77  66  68 W3        29.88R
CHICAGO IL     CLOUDY    73  65  75 S5        29.88R
EAU CLAIRE WI  CLOUDY    71  54  54 SW5       29.85R
LA CROSSE WI   CLOUDY    75  61  61 CALM      29.85R
$$

  *****  SOME NATIONAL WEATHER *****

CITY           SKY/WX    TMP DP  RH WIND       PRES   REMARKS
LA GUARDIA NY  MOCLDY    75  61  61 S9        30.05R
RALEIGH NC     PTCLDY    77  62  59 S3        30.11R
ATLANTA GA     TSTM      81  61  50 S7        30.09S
NEW ORLEANS LA CLOUDY    80  71  74 SE9       30.00R
OKLAHOMA CITY  CLOUDY    74  62  66 S21G31    29.68F
ALBUQUERQUE NM PTCLDY    65  14  14 W18G24    29.90R
SALT LAKE CITY MOCLDY    68  39  34 W13       29.93R
LOS ANGELES CA PTCLDY    63  51  65 W14       29.97S
BOISE ID       PTSUNNY   73  34  23 N5        29.89F
SEATTLE WA     PTSUNNY   57  45  64 SW14      30.14F
$$

*** WEATHER ACROSS MANITOBA...SASKATCHEWAN AND ONTARIO ***
                ***ONTARIO***

CITY           SKY/WX    TMP DP  RH WIND       PRES   REMARKS
GERALDTON      CLOUDY    57  52  82 E5        29.79S
THUNDER BAY    MOCLDY    52  50  93 E6        29.82R FOG
SIOUX LOOKOUT  PTCLDY    59  57  94 NE3       29.72S
TORONTO        MOCLDY    66  59  77 SE5       29.93F
BIG TROUT LK   CLOUDY    59  48  67 SW3       29.76R
PICKLE LAKE    LGT RAIN  57  55  94 E7        29.75S
DRYDEN         MOCLDY    63  57  82 NW2       29.73R
KENORA         MOCLDY    63  55  77 CALM      29.71S
$$
                *** MANITOBA***

CITY           SKY/WX    TMP DP  RH WIND       PRES   REMARKS
BRANDON        LGT RAIN  57  55  94 W13       29.78S
DAUPHIN        LGT RAIN  59  57  94 SW2       29.77R
ISLAND LAKE    MOCLDY    66  50  55 N6        29.77R
PILOT MOUND      N/A     55  52  88 N13         N/A
THE PAS        PTCLDY    61  46  59 N9G17     29.85R
THOMPSON       MOCLDY    43  34  70 NE16G23   29.99R
WINNIPEG       MOCLDY    59  57  94 N8        29.71R
LYNN LAKE      CLOUDY    43  36  75 E14G24    30.06R
CHURCHILL      CLOUDY    32  30  93 NE23      30.18R WCI  19
GILLAM         CLOUDY    36  32  87 NE21G29   30.01R
$$
                ***SASKATCHEWAN***

CITY           SKY/WX    TMP DP  RH WIND       PRES   REMARKS
ESTEVAN        CLOUDY    54  54 100 W3        29.83S
KINDERSLEY     PTCLDY    66  46  48 S10       29.85R
LLOYDMINSTER   PTSUNNY   64  46  52 W7        29.82S
PRINCE ALBERT  PTCLDY    70  45  40 NE6       29.81S
REGINA         LGT RAIN  55  50  82 SE8       29.87S
YORKTON        CLEAR     64  48  55 NE3       29.80R   C1F1C2F2C3F3C4F4C5F5C6F6C7F7C8F8C9F9CaFaCbFbCcFcCdFdCe!



USA.gov is the U.S. government's official web portal to all federal, state and local government web resources and services.